"Pseudo-MPEC" for P21JDJd

Created 2023 Sep 19 16:22:37 UT using Find_Orb

Click here for an explanation of pseudo-MPECs

 
 Astrometry: 
     P21JDJd  C2023 09 11l6tJH[PV:M\)+#%[lYTEJJ(uL5lc@^TnbVC`r84it=twB0CUiYhKF51
     P21JDJd  C2023 09 11To`!29ftw6E]b]qQ2hcd6-@TvyvG.kac$gDa$uQ$39;^EMMK77axF51
     P21JDJd  C2023 09 111oAstrometryNekOM766o#8mqCouVbj:-rAXc3saDh5c4d6%LNW?F51
     P21JDJd  C2023 09 11AujdD?t,/5:'0LDCF+Bht+V8v[l/IA+xeIB*D)n3CuCotgo%/^TnF51
     P21JDJd  C2023 09 12nljP_m9bhxaTH]^lfRYc(3C\[,ti!i\k?u^2]'1xredacted;[Y6F51
     P21JDJd  C2023 09 12s%VL8t.:click-d8iyDdiES%7LO87VIjk\Ze;6herekS0yHq=`a*F51
     P21JDJd  C2023 09 12%+*20u8d$PV5TF6k,p69'5ax,!9I`r.j*forseB]CM9X'9_qs*#jF51
     P21JDJd* C2023 09 15Aqq02I=4cfN[N@G]_iR_JFxv?(S/IJZZ]*QqG=y\E=VGTs,48sA8F52
     P21JDJd  C2023 09 15K=XTpAWAkX`B)a9(C_ET,S'lgC^;wf[/t,PR'RC_l@hSYpQro+XHF52
     P21JDJd  C2023 09 15fJi/c*(`q=IkIywP,u5x;W,NM]GvB%x.*hqmry-CqVi@/fK;;::0F52
     P21JDJd  C2023 09 15rFexplanation_y],v%etgI8p58#2/3!)wBT87o,HAR-@impHXE5F52
     P21JDJd KC2023 09 16.27359123 00 33.253-29 02 21.88   ~9G7b 22.31GVNEOCPI52
     P21JDJd KC2023 09 16.28132623 00 33.221-29 02 17.59   ~9G7b 21.79GVNEOCPI52
     P21JDJd KC2023 09 16.28906623 00 33.325-29 02 11.80   ~9G7b 22.44GVNEOCPI52
     P21JDJd KC2023 09 16.29679823 00 33.289-29 02 07.08   ~9G7b 21.99GVNEOCPI52

Station data:
(F51) Pan-STARRS 1, Haleakala  (N20.707234 W156.255910)  US/Hawaii.
   Observers J. Bulger, T. Lowe, A. Schultz, M. Willman. Measurers K.
   Chambers, S. Chastel, T. de Boer, L. Denneau, J. Fairlamb, H. Flewelling,
   M. Huber, C.-C. Lin, E. Magnier, Y. Ramanjooloo, R. Wainscoat, R. Weryk.
   1.8-m Ritchey-Chrétien + CCD.
(F52) Pan-STARRS 2, Haleakala  (N20.707382 W156.255910)  US/Hawaii.
   Observers J. Bulger, T. Dukes, T. Lowe, A. Schultz, M. Willman. Measurers
   K. Chambers, S. Chastel, T. de Boer, L. Denneau, J. Fairlamb, H.
   Flewelling, M. Huber, C.-C. Lin, E. Magnier, Y. Ramanjooloo, R. Wainscoat,
   R. Weryk. 1.8-m Ritchey-Chrétien + CCD.
(I52) Steward Observatory, Mt. Lemmon Station  (N32.442544 W110.788920)
   US/Arizona.  Observers T. A. Pruyne, B. M. Africano, E. J. Christensen, G.
   A. Farneth, D. C. Fuls, A. R. Gibbs, A. D. Grauer, H. Gröller, J. A.
   Johnson, R. A. Kowalski, S. M. Larson, G. J. Leonard, D. Rankin, R. L.
   Seaman, F. C. Shelly, K. W. Wierzchoś. 1.0-m prime focus + CCD.

Orbital elements:  P21JDJd
   Perihelion 2023 Sep 8.07285 +/- 2.83 TT =  1:44:53 (JD 2460195.57285)
Epoch 2023 Sep 16.0 TT = JDT 2460203.5   Earth MOID: 0.3827   Ma: 0.0913
M   2.29836759 +/- 0.9              (J2000 ecliptic)             AutoNEOCP
n   0.28993603 +/- 0.0162           Peri.  271.91105 +/- 3.8
a   2.26083005 +/- 0.0843           Node    70.06418 +/- 1.8
e   0.3935968 +/- 0.0175            Incl.    6.00801 +/- 0.14
P   3.40                   H 22.69  G  0.15   U 10.0
q 1.37097454 +/- 0.0116    Q 3.15068555 +/- 0.157
From 15 observations 2023 Sept. 11-16; mean residual 0".24
Residuals in arcseconds: 
230911 F51  .13+  .08+    230912 F51  .04-  .11+    230915 F52  .07-  .02-    
230911 F51  .04-  .05-    230912 F51  .01+  .05-    230916 I52  .44+  .20-    
230911 F51  .01-  .01+    230915 F52  .11-  .17-    230916 I52  .43-  .63-    
230911 F51  .01+  .07-    230915 F52  .02-  .11+    230916 I52  .49+  .42+    
230912 F51  .09-  .02-    230915 F52  .21+  .07+    230916 I52  .43-  .37+    

Ephemerides (geocentric):
Date (UTC) HH   RA             Dec           delta  r     elong  mag " sig PA
---- --------  ------------   ------------  ------ ------ -----  --- --------
2023 09 19 16  23 01 23.825   -28 24 13.35  .40701 1.3751 151.1 22.4 .365  13
2023 09 19 17  23 01 24.522   -28 23 43.11  .40711 1.3752 151.1 22.4 .387  12
2023 09 19 18  23 01 25.220   -28 23 12.81  .40720 1.3752 151.1 22.4 .409  11
2023 09 19 19  23 01 25.921   -28 22 42.46  .40730 1.3752 151.1 22.5 .432  11
2023 09 19 20  23 01 26.623   -28 22 12.05  .40740 1.3752 151.0 22.5 .456  10
2023 09 19 21  23 01 27.327   -28 21 41.58  .40749 1.3753 151.0 22.5 .479  10
2023 09 19 22  23 01 28.034   -28 21 11.06  .40759 1.3753 151.0 22.5 .504   9
2023 09 19 23  23 01 28.742   -28 20 40.49  .40769 1.3753 151.0 22.5 .528   9
2023 09 20 00  23 01 29.452   -28 20 09.85  .40779 1.3754 151.0 22.5 .553   8
2023 09 20 01  23 01 30.164   -28 19 39.16  .40789 1.3754 150.9 22.5 .578   8
2023 09 20 02  23 01 30.878   -28 19 08.42  .40798 1.3754 150.9 22.5 .604   7
2023 09 20 03  23 01 31.595   -28 18 37.62  .40808 1.3755 150.9 22.5 .630   7
2023 09 20 04  23 01 32.313   -28 18 06.76  .40818 1.3755 150.9 22.5 .657   7
2023 09 20 05  23 01 33.033   -28 17 35.85  .40828 1.3755 150.9 22.5 .684   6
2023 09 20 06  23 01 33.755   -28 17 04.88  .40838 1.3756 150.8 22.5 .711   6
2023 09 20 07  23 01 34.479   -28 16 33.85  .40848 1.3756 150.8 22.5 .739   6
2023 09 20 08  23 01 35.206   -28 16 02.78  .40858 1.3756 150.8 22.5 .767   5
2023 09 20 09  23 01 35.934   -28 15 31.64  .40868 1.3756 150.8 22.5 .795   5
2023 09 20 10  23 01 36.664   -28 15 00.45  .40878 1.3757 150.8 22.5 .824   5
2023 09 20 11  23 01 37.396   -28 14 29.20  .40888 1.3757 150.7 22.5 .854   5
2023 09 20 12  23 01 38.131   -28 13 57.90  .40898 1.3757 150.7 22.5 .883   5
2023 09 20 13  23 01 38.867   -28 13 26.55  .40908 1.3758 150.7 22.5 .914   4
2023 09 20 14  23 01 39.605   -28 12 55.14  .40918 1.3758 150.7 22.5 .944   4
2023 09 20 15  23 01 40.346   -28 12 23.67  .40928 1.3758 150.7 22.5 .975   4
2023 09 20 16  23 01 41.088   -28 11 52.15  .40938 1.3759 150.6 22.5 1.01   4
2023 09 20 17  23 01 41.833   -28 11 20.57  .40948 1.3759 150.6 22.5 1.04   4
2023 09 20 18  23 01 42.580   -28 10 48.94  .40959 1.3759 150.6 22.5 1.07   3
2023 09 20 19  23 01 43.328   -28 10 17.25  .40969 1.3760 150.6 22.5 1.10   3
2023 09 20 20  23 01 44.079   -28 09 45.51  .40979 1.3760 150.6 22.5 1.14   3
2023 09 20 21  23 01 44.832   -28 09 13.72  .40989 1.3760 150.5 22.5 1.17   3
2023 09 20 22  23 01 45.587   -28 08 41.87  .40999 1.3761 150.5 22.5 1.20   3
2023 09 20 23  23 01 46.344   -28 08 09.96  .41010 1.3761 150.5 22.5 1.24   3
2023 09 21 00  23 01 47.103   -28 07 38.00  .41020 1.3761 150.5 22.5 1.27   3
2023 09 21 01  23 01 47.864   -28 07 05.98  .41030 1.3762 150.5 22.5 1.31   3
2023 09 21 02  23 01 48.627   -28 06 33.92  .41041 1.3762 150.4 22.5 1.34   2
2023 09 21 03  23 01 49.393   -28 06 01.79  .41051 1.3762 150.4 22.5 1.38   2
2023 09 21 04  23 01 50.160   -28 05 29.61  .41061 1.3763 150.4 22.5 1.42   2
2023 09 21 05  23 01 50.930   -28 04 57.38  .41072 1.3763 150.4 22.5 1.45   2
2023 09 21 06  23 01 51.701   -28 04 25.10  .41082 1.3763 150.4 22.5 1.49   2
2023 09 21 07  23 01 52.475   -28 03 52.75  .41092 1.3764 150.3 22.5 1.53   2
2023 09 21 08  23 01 53.251   -28 03 20.36  .41103 1.3764 150.3 22.5 1.57   2
2023 09 21 09  23 01 54.029   -28 02 47.91  .41113 1.3764 150.3 22.5 1.61   2
2023 09 21 10  23 01 54.809   -28 02 15.41  .41124 1.3765 150.3 22.5 1.65   2
2023 09 21 11  23 01 55.591   -28 01 42.85  .41134 1.3765 150.3 22.5 1.69   2
2023 09 21 12  23 01 56.376   -28 01 10.24  .41145 1.3765 150.2 22.5 1.73   2
2023 09 21 13  23 01 57.162   -28 00 37.57  .41155 1.3766 150.2 22.5 1.77   1
2023 09 21 14  23 01 57.951   -28 00 04.86  .41166 1.3766 150.2 22.5 1.81   1
2023 09 21 15  23 01 58.742   -27 59 32.08  .41177 1.3766 150.2 22.5 1.85   1